Location: Clanezzo
(45.7500°N, 9.6000°E)
Time: 04:27:49
(UTC+00:00)

Nadezhda 3 Rocket - Pass Details

Date: 12 May 2021
Orbit: 956 x 1000 km, 82.9° (Epoch: 18 June)

Event Time Altitude Azimuth Distance (km) Brightness Sun altitude
Exits shadow 23:01:04 61° 154° (SSE) 1,104 3.9 -25.8°
Maximum altitude 23:02:07 74° 95° (E) 1,015 3.9 -25.8°
Drops below altitude 10° 23:08:20 10° 12° (NNE) 2,720 7.3 -25.8°
Sets 23:10:50 0° 11° (N) 3,665 8.3 -25.8°
